OPS 4682 DEB, 38417

Orbit data source: Space-Track

OPS 4682 DEB, 38417 is space debris in LEO originally from a launch on Sat, 03 Apr 1965 UTC launched from the Air Force Western Test Range (AFWTR). Debris objects in space refer to the collection of defunct objects orbiting the Earth. Examples of debris include non-operational satellites, rocket bodies, and fragments generated from explosions, collisions, or faulty payload assembly.

Loading next visibility...
Identifier
38417, 1965-027DW
Orbit
LEO
Country
Flag of USUS
Related business
Manufacturer
Unknown
Mission
Spacecraft
Bus & Motor
Unknown
Mass
Unknown
Launch date (UTC)
1965-04-03 (61 years ago)
Launch vehicle
Unknown
Launch site
Air Force Western Test Range (AFWTR)
Object type
Payload
Rocket body
Debris
Shape & HBR
Unknown shape, 0.1 m
Radar Cross Section
Small (<0.1 m²)

Expand to show TLE details & history
Last TLE update: 8 hours ago

TLE from 8 hours ago
0 OPS 4682 DEB
1 38417U 65027DW  26119.43170600 -.00000005  00000-0 -42324-4 0  9999
2 38417  90.2520  11.1735 0030494 275.1827  84.5813 12.96654638600367
Epoch: 2026-04-29T10:21Z
TLE epoch observation values (Epoch: 2026-04-29T10:21:39.398Z)
Latitude
-0.00006°
Longitude
-1.63342°
Altitude
1,275.967 km
Speed
7.219 km/s
True Right ascension
00h 44m 41s
True Declination
0° 00' 00"
Sunlit
Object was in daylight at epoch
Visualization orbit readout
Latitude
Unknown
Longitude
Unknown
Altitude
Unknown
Speed
Unknown
Apparent Right ascension
Unknown
Apparent Declination
Unknown
Sunlit
N/A
Visualization observer readout
Local Sidereal Time
01:45:06
Azimuth
Unknown
Elevation
Unknown
Doppler factor
Unknown
Orbital elements
Apogee altitude
1,295.683 km
Perigee altitude
1,249.025 km
Semi-major axis
7,650.491 km
Eccentricity
0.00305
Inclination
90.252°
RAAN
11.1735°
Arg. of periapsis
275.1827°
True anomaly
84.9293°
Mean anomaly
84.5813°
Eccentric anomaly
84.75529°
Mean motion
3.24346 °/min
Orbital period
110.99 mins
BSTAR
-0.000042324
Loading maneuver chart data...
Computing Atmospheric mass density...
Loading historical data...
Loading historical data...
Loading historical data...
Loading historical data...
Loading historical data...
Loading historical data...
Loading historical data...

Documentation

Showing up to 5 results
|